PPR-pyyntö

Ennakkolupa on pakollinen lentoonlähtöjä ja laskuja varten. Pyydä ennakkolupa tästä.

Laskukierrosvaraus

Tee ensin PPR-pyyntö, sitten vasta laskukierrosvaraus. Hinta 5 € / 15 min.

Aerodrome Info

Updated 12 DEC 2017 12:26 LT

  • Some asphalt damage south of RWY 36 threshold.
  • Wet snow on RWY, aprons and taxiways.
  • Preferred rwy

Contact duty officer at +358 20 7545 129 for more information.

Weather


Helsinki Malmi lentokenttä
AWS ILHF 130250Z AUTO 26009KT 9999 OVC015 00/M02 Q0989=

METAR EFHK 130250Z 25011KT 9999 -SN FEW008 BKN012 BKN018 M00/M02 Q0989 TEMPO 6000=
TAF EFHK 130233Z 1303/1403 24011KT 9999 -SN SCT011 BKN018 TEMPO 1303/1306 4000 -SN PROB40 1303/1306 BKN013 SCT020CB TEMPO 1315/1319 4000 -SNRA BKN011 SCT030CB=

Helsinki-Malmin lentoasema

Tervetuloa Helsinki-Malmin lentokentälle

Malmin lentokenttäyhdistys ry on yleishyödyllinen yhdistys, joka toimii Suomen vilkkaimman yleisilmailukentän, Helsinki-Malmin operaattorina. Yhdistyksen toiminnassa ovat mukana kentällä toimivat yhteisöt sekä suuri joukko yleisilmailijoita.

Malmin lentokentän toiminta rahoitetaan jäsen- ja kausikorttimaksuin. Ole mukana jatkamassa Malmin lentotoimintaa ja liity jäseneksi!